Overview Statistics Trail Chart Weather Telemetry Raw packets
 

This is the latest recevied weather packets stored in our database for station/object NR6G-12. If no packets are shown the sender has not sent any weather packets the latest 10 day(s).

<< 87 88 89 90 91 92 93 >>
Time Temp. Humidity Pressure Rain* Wind** Luminosity Snow
1787874192 22.22° C 54% 1022.1 hPa 0 mm - - -
1787873834 22.22° C 55% 1022.2 hPa 0 mm - - -
1787873472 22.78° C 53% 1022.2 hPa 0 mm - - -
1787873112 22.78° C 52% 1022.1 hPa 0 mm - - -
1787872752 22.78° C 52% 1022 hPa 0 mm - - -
1787872392 22.78° C 50% 1022.2 hPa 0 mm - - -
1787872035 22.78° C 49% 1022.4 hPa 0 mm - - -
1787871672 23.33° C 48% 1022.4 hPa 0 mm - - -
1787871313 23.33° C 48% 1022.4 hPa 0 mm - - -
1787870952 23.33° C 49% 1022.6 hPa 0 mm - - -
1787870592 23.89° C 47% 1022.8 hPa 0 mm - - -
1787870232 23.33° C 46% 1023.1 hPa 0 mm - - -
1787869872 23.33° C 48% 1023.2 hPa 0 mm - - -
1787869512 22.78° C 52% 1023.4 hPa 0 mm - - -
1787869152 22.22° C 50% 1023.7 hPa 0 mm - - -
1787868792 21.67° C 49% 1023.9 hPa 0 mm - - -
1787868432 21.67° C 48% 1024 hPa 0 mm - - -
1787868072 21.67° C 48% 1024 hPa 0 mm - - -
1787867712 21.67° C 48% 1024.1 hPa 0 mm - - -
1787867352 21.67° C 53% 1024.1 hPa 0 mm - - -
1787866992 21.67° C 52% 1024.1 hPa 0 mm - - -
1787866632 21.67° C 51% 1024.1 hPa 0 mm - - -
1787866272 21.11° C 53% 1024 hPa 0 mm - - -
1787865613 21.11° C 53% 1023.8 hPa 0 mm - - -
1787865253 21.11° C 54% 1023.7 hPa 0 mm - - -

* Rain latest hour (hover to see other rain measurements)
** Current wind speed in m/s (hover to see current wind gust speed)